カタログに戻る

STARLINK-33803

運用中通信VLEO
NORAD 63517·PAYLOAD·🇺🇸 United States

打ち上げ Apr 7, 2025 から Vandenberg Space Force Base

Loading…

次のパス (今後24時間)

TLE

最新Source: CelesTrak SupGP

元期: Sep 14, 2026, 22:23 UTC

1 63517C 25071AA  26257.93312500 -.00005261  00000+0 -15553-3 0  2576
2 63517  53.1578 339.4128 0001209  87.7143 299.5153 15.34374390    19

AllMySatでSTARLINK-33803をリアルタイム追跡

Download on the App Store